Hourly Data Report for September 04, 2017

All times are specified in Local Standard Time (LST). Add 1 hour to adjust for Daylight Saving Time where and when it is observed.

RANKIN INLET A
NUNAVUT

62°48'38.000" N
92°06'53.000" W
32.30 m
2303405
71083
YRT

Download Data

Hourly Data (September 2017)
Hourly Data Report for September 4, 2017
Temp Definition
°C
Dew Point Temp Definition
°C
Rel Hum Definition
%
Wind Dir Definition
10's deg

Wind Spd Definition
km/h
Visibility Definition
km
Stn Press Definition
kPa
Hmdx Definition


Wind Chill Definition


Weather Definition


TIME
00:00 Legend Double Dagger 5.2 1.7 78 2 30 24.1 100.09     Cloudy
01:00 Legend Double Dagger 4.6 1.8 82 2 34 24.1 100.15     LegendNANA
02:00 Legend Double Dagger 3.8 1.6 85 3 35 24.1 100.23     LegendNANA
03:00 Legend Double Dagger 3.6 1.7 88 2 33 24.1 100.32     Mainly Clear
04:00 Legend Double Dagger 3.4 1.7 88 3 36 24.1 100.40     LegendNANA
05:00 Legend Double Dagger 3.7 2.1 89 2 31 24.1 100.47     LegendNANA
06:00 Legend Double Dagger 3.7 1.9 88 2 28 24.1 100.55     Mostly Cloudy
07:00 Legend Double Dagger 4.3 2.0 85 2 34 24.1 100.66     LegendNANA
08:00 Legend Double Dagger 4.5 2.2 85 3 29 24.1 100.72     LegendNANA
09:00 Legend Double Dagger 5.2 2.1 80 4 37 24.1 100.76     Mostly Cloudy
10:00 Legend Double Dagger 6.0 1.9 75 3 37 24.1 100.83     LegendNANA
11:00 Legend Double Dagger 7.5 3.0 73 4 28 24.1 100.86     LegendNANA
12:00 Legend Double Dagger 8.6 3.1 68 4 27 24.1 100.92     Mainly Clear
13:00 Legend Double Dagger 9.9 3.1 63 3 29 24.1 100.96     LegendNANA
14:00 Legend Double Dagger 10.8 3.0 59 3 26 24.1 101.02     LegendNANA
15:00 Legend Double Dagger 11.2 2.6 55 1 23 24.1 101.07     Mainly Clear
16:00 Legend Double Dagger 11.5 1.6 50 1 28 24.1 101.11     LegendNANA
17:00 Legend Double Dagger 11.4 2.0 52 1 19 24.1 101.13     LegendNANA
18:00 Legend Double Dagger 10.4 3.5 62 35 18 24.1 101.17     Mainly Clear
19:00 Legend Double Dagger 7.5 3.2 74 34 14 24.1 101.20     LegendNANA
20:00 Legend Double Dagger 7.0 3.2 77 1 9 24.1 101.22     LegendNANA
21:00 Legend Double Dagger 6.0 3.3 83 36 3 24.1 101.22     Clear
22:00 Legend Double Dagger 6.1 3.0 80 36 2 24.1 101.23     LegendNANA
23:00 Legend Double Dagger 5.5 3.6 87 25 4 24.1 101.25     LegendNANA

Notes on Data Quality.

Legend

  • E = Estimated
  • M = Missing
  • NA = Not Available
  • ‡ = Partner data that is not subject to review by the National Climate Archives
Date modified: